User: anonymous   Login
Location: Newark
(34.0111°N, 88.4892°W)
Time: 07:58:26
(UTC+00:00)
Language:

DIWATA 2B (PO-101) - Orbit

View from above orbital plane
View from above orbital plane
View from above satellite
View from above satellite

Ground track
Ground track

The orbit data is extracted from the following two-line orbital elements,

1 43678U 18084H   20157.86906758 -.00000321  00000-0 -26262-4 0  9993
2 43678  97.8820 276.2732 0009153 208.7269 151.3451 14.91628329 87296
Epoch (UTC): 05 June 2020 20:51:27
Eccentricity: 0.0009153
inclination: 97.8820°
perigee height: 586 km
apogee height: 599 km
right ascension of ascending node: 276.2732°
argument of perigee: 208.7269°
revolutions per day: 14.91628329
mean anomaly at epoch: 151.3451°
orbit number at epoch: 8729

The dashed part of the orbit path shows where the satellite is in the earth's shadow,  

DLR